Location: Unspecified
(0.0000°N, 0.0000°E)
Time: 03:12:08
(UTC+00:00)

XW-2F - Pass Details

Date: 08 December 2017
Orbit: 505 x 527 km, 97.5° (Epoch: 21 June)

Event Time Altitude Azimuth Distance (km) Brightness Sun altitude
Rises 18:26:31 0° 194° (SSW) 2,604 ? -7.9°
Reaches altitude 10° 18:29:04 10° 213° (SSW) 1,718 ? -8.5°
Maximum altitude 18:31:42 19° 259° (WSW) 1,265 ? -9.1°
Drops below altitude 10° 18:34:20 10° 304° (NW) 1,716 ? -9.7°
Sets 18:36:53 0° 323° (NW) 2,601 ? -10.3°
